GEFSCGP_con_cape1000_282.txt.gz
Probability
0 0 0 0 0 0 0 0 0 0 0 0 0 0 0 3 3 3 6 13 19 16 16 13 16 19 39 58 71 74 71 77 77 71 65 68 61 65 58 58 55 52 42 42
0 0 0 0 0 0 0 0 0 0 0 0 0 0 0 0 3 3 6 13 16 16 19 16 19 29 45 65 77 77 77 74 74 77 77 81 74 68 61 58 65 55 48 48
0 0 0 0 0 0 0 0 0 0 0 0 0 0 0 0 0 3 6 10 13 13 19 23 26 29 39 55 68 61 81 81 84 74 77 74 77 71 65 68 68 55 55 45
0 0 0 0 0 0 0 0 0 0 0 0 0 0 0 0 0 0 3 10 13 13 19 26 23 35 42 55 71 84 84 84 87 84 77 68 71 61 65 74 68 65 52 42
0 0 0 0 0 0 0 0 0 0 0 0 0 0 3 3 0 0 6 6 16 19 23 26 19 39 45 48 65 81 81 81 81 81 77 74 71 68 68 74 71 68 65 48
0 0 0 0 0 0 0 0 0 0 0 0 0 0 0 3 6 6 6 13 19 19 19 29 26 45 45 48 58 74 81 84 84 77 77 84 81 74 71 74 68 65 65 58
0 0 0 0 0 0 0 0 0 0 0 0 0 0 3 3 6 10 16 23 19 19 19 32 32 45 45 48 55 68 81 84 84 77 77 81 81 84 77 71 65 61 55 55
0 0 0 0 0 0 0 0 0 0 0 0 0 3 6 10 10 10 23 29 19 16 19 23 32 42 39 42 55 68 81 81 84 77 81 81 77 74 65 65 58 61 58 45
0 0 0 0 0 0 0 0 0 0 0 0 0 3 10 10 13 10 16 26 19 19 16 32 26 42 39 39 55 58 74 81 81 81 81 81 81 74 71 74 61 55 58 55
0 0 0 0 0 0 0 0 0 0 0 0 0 3 6 13 13 6 13 23 26 19 16 29 35 45 45 45 65 68 74 84 84 81 74 71 74 74 71 68 68 61 61 61
0 0 0 0 0 0 0 0 0 3 0 0 0 0 6 10 13 23 23 26 32 19 13 19 29 45 48 52 55 68 74 77 77 77 68 71 68 71 71 71 68 68 61 61
0 0 0 0 0 0 0 0 0 0 6 0 0 3 6 10 16 16 26 26 32 23 16 10 26 45 58 58 61 61 68 71 65 74 74 68 65 65 65 65 65 68 65 68
0 0 0 0 0 0 0 0 0 0 0 0 0 3 3 10 10 16 29 29 29 35 26 23 45 58 65 61 65 61 65 65 68 65 74 68 68 65 61 58 61 68 68 65
0 0 0 0 0 0 0 0 0 0 0 0 3 3 3 3 3 19 19 26 26 26 52 48 61 65 65 68 71 68 71 71 68 71 65 65 65 65 65 61 61 65 58 55
0 0 0 0 0 0 0 0 0 0 0 0 3 3 3 6 10 16 23 23 26 32 45 71 71 68 77 81 74 71 71 71 71 71 68 68 65 61 65 61 58 55 55 55
0 3 0 0 0 0 0 0 0 0 3 3 3 3 3 10 16 16 23 26 29 35 39 58 65 74 77 81 74 71 74 74 74 74 71 71 71 65 65 58 58 58 55 58
0 6 6 0 0 0 0 0 0 0 3 3 6 6 6 10 13 32 35 32 29 29 45 61 61 68 74 71 77 74 74 74 74 74 71 71 71 65 61 55 55 58 55 58
3 16 13 3 3 0 0 0 3 3 3 3 6 3 10 13 16 13 23 32 29 32 42 55 55 61 65 71 71 74 77 74 74 71 71 71 71 65 68 58 58 61 61 61
3 10 3 3 0 3 3 0 3 3 3 3 6 6 10 13 19 16 26 35 45 39 52 52 58 52 61 61 68 68 71 71 71 68 68 68 71 61 61 61 61 61 61 58
3 13 6 3 0 0 3 0 3 3 10 10 6 6 10 10 19 26 39 39 48 45 58 55 55 55 61 61 68 65 61 71 68 68 68 68 61 58 55 58 61 61 61 52
0 6 3 6 3 3 3 0 0 0 16 16 10 13 13 29 29 45 52 55 52 52 55 55 52 52 65 61 68 65 65 68 68 68 65 68 65 58 58 55 55 58 52 52
0 0 0 3 3 6 3 0 0 29 39 19 16 13 13 19 29 42 52 52 48 48 48 52 52 55 58 61 68 65 65 61 61 65 65 58 55 48 48 55 55 55 48 48
0 6 6 13 13 16 23 19 23 26 26 13 16 13 13 19 29 39 55 58 55 52 52 52 52 55 55 61 68 65 68 68 61 61 61 55 48 52 48 48 48 48 52 48
6 6 10 23 13 16 16 16 16 16 19 19 16 10 19 26 26 48 52 52 61 55 55 55 48 55 58 58 58 68 65 65 65 58 52 52 48 48 52 52 45 39 39 39
3 10 6 16 19 19 16 16 13 19 19 16 16 19 19 32 35 45 42 48 55 48 55 55 52 55 58 55 58 55 58 58 55 48 52 45 45 39 42 42 35 35 32 32
6 10 13 16 26 29 29 19 10 26 23 16 16 23 29 32 35 45 42 42 45 39 45 48 52 52 52 52 55 55 52 52 52 48 45 39 32 39 35 23 13 6 6 0

GEFSCGP_con_cape1000_288.txt.gz
Probability
0 0 0 0 0 0 0 0 0 0 0 0 0 0 0 0 0 6 10 6 6 10 6 6 13 19 16 16 19 19 19 26 29 29 29 23 23 26 16 16 19 23 23 23
0 0 0 0 0 0 0 0 0 0 0 0 0 0 0 0 0 3 10 6 10 6 6 10 13 19 23 19 19 23 26 26 35 26 32 23 23 26 19 23 23 16 16 16
0 0 0 0 0 0 0 0 0 0 0 0 0 0 0 0 3 3 3 13 6 3 6 10 13 23 19 19 23 26 26 32 42 32 32 35 26 19 16 16 16 13 13 16
0 0 0 0 0 0 0 0 0 0 0 0 0 0 3 3 6 6 10 16 10 10 3 3 10 16 19 23 23 23 32 29 39 39 29 26 26 23 19 16 10 13 23 19
0 0 0 0 0 0 0 0 0 0 0 0 0 0 3 3 6 6 6 10 13 13 0 0 0 19 23 26 26 23 32 39 42 35 29 19 26 26 16 13 13 10 13 16
0 0 0 0 0 0 0 0 0 0 0 0 0 0 3 3 6 6 10 13 10 10 13 10 10 23 29 29 29 29 42 39 39 39 29 29 35 32 16 19 13 10 13 16
0 0 0 0 0 0 0 0 0 0 0 0 0 3 3 3 6 6 10 10 10 6 6 6 10 13 29 29 29 45 48 42 42 39 35 29 29 29 26 19 13 10 10 19
0 0 0 0 0 0 0 0 0 0 0 0 0 3 6 3 3 10 10 10 6 6 3 6 10 13 19 26 32 48 52 48 45 45 42 32 23 26 26 19 19 13 19 23
0 0 0 0 0 0 0 0 0 0 0 0 0 3 6 3 3 3 6 3 6 10 3 6 10 6 23 19 29 48 45 48 42 45 42 29 32 32 26 23 23 23 19 19
0 0 0 0 0 0 0 0 0 0 0 0 0 0 3 3 3 3 6 10 13 10 6 6 6 10 16 19 29 52 48 48 45 45 42 35 32 35 32 29 32 26 23 13
0 0 0 0 0 0 0 0 0 0 0 0 0 0 3 3 6 10 3 6 10 10 6 6 6 10 16 26 35 48 52 45 45 42 39 42 35 26 26 26 29 26 23 23
0 0 0 0 0 0 0 0 0 0 0 0 0 0 0 0 3 6 6 6 6 6 3 3 3 6 16 26 39 48 52 52 52 39 35 42 42 35 26 26 19 16 16 13
0 0 0 0 0 0 0 0 0 0 0 0 0 0 0 0 0 0 3 6 3 0 6 3 3 13 19 23 39 55 55 52 52 45 39 45 45 39 35 23 23 13 13 10
0 0 0 0 0 0 0 0 0 0 0 0 0 0 0 0 0 0 3 6 3 10 6 6 13 13 26 26 42 55 52 52 48 45 42 45 45 39 32 26 19 16 16 13
0 0 0 0 0 0 0 0 0 0 0 0 0 3 6 3 0 0 6 6 10 10 10 10 13 19 29 35 35 48 52 48 48 45 42 42 45 35 26 23 19 13 16 16
0 0 0 0 0 0 0 3 3 3 0 0 3 3 3 3 3 3 6 16 16 10 10 16 16 19 26 32 42 45 48 52 48 55 48 45 39 35 29 26 19 19 19 16
0 0 0 0 0 0 0 0 3 3 0 0 3 3 0 3 3 10 16 13 26 16 23 16 13 19 19 16 35 42 48 52 52 52 48 42 39 32 32 32 29 26 29 19
0 0 0 0 0 0 3 3 3 3 0 3 3 0 0 0 0 3 3 6 23 19 23 23 16 19 23 26 32 35 42 45 45 48 45 35 42 39 32 29 29 26 26 29
0 0 0 0 0 3 3 3 3 3 6 3 3 3 3 6 6 6 6 10 16 26 29 32 35 32 32 29 35 39 35 39 45 45 42 39 45 35 39 32 29 32 26 26
0 0 0 0 0 0 3 3 3 6 10 13 6 3 3 6 6 6 6 13 19 26 26 32 32 35 35 29 29 35 42 42 45 42 45 39 35 32 35 39 29 29 29 26
0 0 0 0 0 3 3 3 0 0 6 6 6 3 6 6 6 6 13 16 23 26 29 29 32 32 35 29 29 35 39 39 39 35 29 35 35 39 32 32 26 29 29 26
0 0 0 0 0 3 3 6 3 3 3 10 10 6 3 10 6 10 16 13 26 29 29 29 35 35 35 32 35 29 29 29 29 32 32 29 29 35 32 32 29 29 26 23
0 0 0 3 3 3 0 6 10 6 10 10 10 10 6 10 23 19 23 26 29 29 23 29 35 35 35 35 35 35 23 23 26 23 29 26 23 26 29 26 26 26 29 29
3 3 3 3 3 3 3 6 10 10 10 10 10 13 10 16 19 23 19 23 26 29 26 23 32 35 35 35 32 26 23 26 29 26 29 23 19 19 19 19 19 23 26 26
3 3 3 3 3 3 3 3 6 6 10 6 13 13 13 16 23 23 19 19 23 26 26 29 29 32 32 35 29 23 23 26 23 26 23 19 19 19 16 16 13 13 16 19
3 3 0 3 0 6 6 6 10 10 10 10 6 10 16 16 16 16 23 19 19 23 29 29 26 29 35 29 26 26 26 23 16 16 19 16 19 16 16 13 6 3 3 0

GEFSCGP_con_cape1000_294.txt.gz
Probability
0 0 0 0 0 0 0 0 0 0 0 0 0 3 3 3 3 6 6 6 6 6 3 6 6 6 6 6 10 10 10 6 6 10 13 10 13 10 10 13 19 23 19 13
0 0 0 0 0 0 0 0 0 0 0 0 3 3 3 3 3 10 6 6 6 6 6 6 10 10 10 6 6 13 13 10 10 13 16 16 16 13 10 10 13 13 16 13
0 0 0 0 0 0 0 0 0 0 0 0 0 0 3 3 3 0 6 6 6 10 10 10 13 10 10 10 10 16 13 10 13 10 16 16 16 16 10 10 6 6 10 10
0 0 0 0 0 0 0 0 0 0 0 0 0 0 0 3 3 0 0 3 10 10 3 3 6 3 6 10 10 13 13 13 10 10 16 16 16 16 13 10 6 6 6 6
0 0 0 0 0 0 0 0 0 0 0 0 0 0 0 3 3 0 0 6 10 10 6 6 3 3 3 3 10 6 3 10 10 13 16 16 16 16 10 10 6 6 6 6
0 0 0 0 0 0 0 0 0 0 0 0 0 0 0 3 3 0 3 6 10 6 6 3 3 3 3 3 3 3 3 6 13 16 16 13 16 13 13 6 6 6 6 6
0 0 0 0 0 0 0 0 0 0 0 0 0 0 0 3 3 6 6 3 6 3 3 3 3 3 3 3 3 3 3 10 10 19 13 10 10 10 10 6 6 6 6 3
0 0 0 0 0 0 0 0 0 0 0 0 0 0 3 3 3 6 6 6 6 3 3 0 0 3 0 0 3 10 3 6 13 16 16 16 10 10 10 10 10 10 6 6
0 0 0 0 0 0 0 0 0 0 0 0 0 3 3 3 3 6 6 6 6 6 0 0 0 3 3 0 3 6 6 10 13 13 19 10 6 3 13 10 13 10 6 6
0 0 0 0 0 0 0 0 0 0 0 0 0 0 3 3 3 3 6 0 3 3 0 0 0 0 3 3 6 6 6 10 16 23 23 23 6 10 10 6 6 6 3 3
0 0 0 0 0 0 0 0 0 0 0 0 0 0 0 3 3 3 0 6 6 3 3 3 6 6 6 6 10 6 13 16 23 26 23 19 16 13 13 13 6 3 3 3
0 0 0 0 0 0 0 0 0 0 0 0 0 0 0 3 3 0 0 3 6 6 6 3 3 6 6 13 13 13 16 16 29 29 29 23 19 19 13 10 6 6 6 6
0 0 0 0 0 0 0 0 0 0 0 0 0 0 0 3 0 0 0 0 3 6 6 0 0 10 10 13 13 16 19 32 26 29 26 26 19 16 10 10 6 6 6 6
0 0 0 0 0 0 0 0 0 0 0 0 0 0 0 3 0 0 0 0 0 6 6 3 0 10 13 16 13 23 29 32 26 26 32 29 23 10 10 6 6 6 6 10
0 0 0 0 0 0 0 0 0 0 0 0 0 0 0 3 0 0 0 0 0 3 0 3 6 3 13 16 23 26 26 32 32 29 29 26 26 16 10 6 6 6 13 10
0 0 0 0 0 0 0 0 0 0 0 0 0 0 0 0 0 0 3 3 3 3 3 0 6 3 16 23 19 29 32 35 39 32 32 23 19 19 13 10 10 13 13 13
0 0 0 0 0 0 0 0 0 0 0 0 0 0 0 0 0 0 0 3 3 6 3 3 6 6 13 23 23 26 39 39 35 29 29 26 23 19 10 10 13 13 10 13
0 0 0 0 0 0 0 0 0 0 0 0 0 0 0 0 0 3 3 3 3 3 6 6 10 13 13 16 16 19 32 39 39 35 32 32 26 19 13 6 6 13 16 16
0 0 0 0 0 0 0 0 0 0 0 0 0 0 0 0 0 6 3 3 3 3 6 6 10 13 16 16 19 23 32 35 39 39 35 29 23 16 10 10 10 13 13 16
0 0 0 0 0 0 0 0 0 0 3 0 3 3 3 0 3 3 3 3 3 0 10 10 10 13 16 16 19 26 26 32 32 39 32 26 23 19 16 10 6 10 10 16
0 0 0 0 0 0 0 3 0 0 0 0 0 3 3 0 0 0 0 3 3 6 6 3 10 13 16 13 23 23 26 29 26 29 29 26 23 19 13 13 16 6 10 10
0 0 0 0 0 0 0 3 3 0 0 0 3 3 6 6 3 3 6 6 6 13 10 13 10 10 16 16 16 23 19 26 26 26 23 26 19 19 16 13 13 13 13 10
0 0 0 0 0 0 0 0 0 0 0 3 3 10 10 6 10 10 10 10 10 10 10 13 13 16 16 16 19 23 19 23 23 26 19 19 16 16 13 16 13 13 13 13
0 0 0 0 3 3 3 0 0 0 3 6 6 10 10 6 6 10 13 13 10 10 10 16 16 19 19 19 16 16 16 23 19 23 19 19 16 13 13 16 13 16 13 13
0 0 0 3 3 3 3 3 3 3 6 6 6 6 6 10 13 13 13 13 13 13 13 16 16 16 19 16 16 16 16 19 19 19 19 16 13 13 16 13 16 19 16 16
0 0 0 0 3 3 3 3 6 6 6 3 3 3 3 6 6 10 10 10 10 13 13 16 10 13 13 16 19 16 10 16 16 13 13 13 10 13 13 10 6 3 3 3

GEFSCGP_con_cape1000_300.txt.gz
Probability
0 0 0 0 0 0 0 0 0 0 0 0 0 0 3 10 13 10 23 19 23 13 19 26 26 26 23 35 48 48 45 48 52 52 52 58 55 48 48 52 55 55 52 35
0 0 0 0 0 0 0 0 0 0 0 0 0 0 0 13 6 10 16 26 19 19 23 32 35 29 32 45 48 48 55 55 58 52 52 52 52 45 48 48 55 52 48 35
0 0 0 0 0 0 0 0 0 0 0 0 0 0 0 10 10 10 13 19 23 23 23 32 29 32 32 35 48 39 55 55 58 58 55 52 52 52 52 48 48 52 45 39
0 0 0 0 0 0 0 0 0 0 0 0 0 0 0 6 10 10 10 16 16 19 23 29 29 35 35 32 39 45 55 55 55 61 58 55 52 48 48 45 52 48 42 35
0 0 0 0 0 0 0 0 0 0 0 0 0 0 3 6 10 10 10 13 16 19 23 23 29 35 29 29 35 42 58 61 58 58 58 61 58 48 48 45 42 42 45 39
0 0 0 0 0 0 0 0 0 0 0 0 0 0 3 6 10 16 13 13 19 16 23 23 23 29 29 35 35 42 55 61 61 58 58 58 58 48 48 42 39 32 39 39
0 0 0 0 0 0 0 0 0 0 0 0 3 0 3 3 10 10 16 19 13 23 23 26 26 32 35 39 39 42 55 61 61 61 58 58 61 58 55 42 42 42 35 32
0 0 0 0 0 0 0 0 0 0 0 0 3 3 6 6 13 6 6 19 19 23 29 23 29 35 32 39 48 45 58 58 58 58 65 65 68 58 45 35 39 39 39 39
0 0 0 0 0 0 0 0 0 0 0 0 0 3 6 10 13 10 16 23 29 23 32 26 32 29 32 32 52 45 58 61 61 65 65 65 61 58 52 52 42 32 35 29
0 0 0 0 0 0 0 0 0 0 0 0 0 3 3 23 16 10 16 19 29 32 32 29 32 29 26 26 39 42 58 58 58 58 61 58 61 58 65 55 52 35 35 35
0 0 0 0 0 0 0 0 0 0 0 0 0 0 3 16 16 13 16 16 32 26 29 32 39 35 32 26 29 52 58 58 55 55 58 58 55 58 58 58 55 55 45 35
0 0 0 0 0 0 0 0 0 0 0 0 0 0 0 6 10 10 10 23 26 32 32 35 39 35 42 35 32 39 52 58 61 61 55 55 61 58 58 55 55 55 52 39
0 0 0 0 0 0 0 0 0 0 0 0 0 0 3 6 10 13 16 19 39 42 39 39 42 45 45 42 55 52 52 58 58 55 61 58 55 58 58 58 55 52 52 35
0 0 0 0 0 0 0 0 0 0 0 0 0 3 3 13 13 13 19 19 35 45 39 35 42 45 42 45 52 55 61 58 65 71 61 65 55 58 58 55 52 52 48 39
0 0 0 0 0 0 0 0 0 0 0 0 0 3 6 6 13 16 16 26 26 32 32 32 32 39 35 48 52 58 58 68 65 68 68 68 65 65 58 58 55 52 39 35
0 0 0 0 0 0 0 0 0 0 0 0 0 3 13 13 16 23 23 26 26 32 39 35 29 26 39 45 58 65 65 68 71 68 65 65 65 65 65 61 55 52 45 39
0 0 0 0 0 0 0 0 0 0 0 0 0 10 16 16 23 29 32 32 19 29 35 35 29 29 39 52 68 65 68 68 61 65 65 68 68 68 68 58 58 55 48 42
3 3 0 0 0 0 0 0 0 0 3 3 10 10 16 19 26 26 29 32 32 29 26 29 26 29 32 42 52 65 61 65 65 65 65 61 65 68 68 58 58 58 48 45
0 0 0 0 0 0 0 3 3 3 0 6 6 10 16 23 23 16 19 26 29 29 29 26 26 29 29 35 52 58 65 61 65 65 65 65 65 65 58 58 61 58 48 45
0 3 0 0 0 0 0 0 3 3 0 10 13 13 26 26 13 19 23 26 23 29 26 32 32 35 32 42 48 55 52 55 58 61 65 68 61 58 58 55 55 52 48 42
0 0 0 0 0 0 0 3 3 0 3 13 16 23 26 16 13 23 26 23 26 23 32 32 29 32 42 48 55 52 52 48 48 52 58 61 58 52 48 55 55 52 42 39
0 0 0 0 0 0 3 3 6 10 16 16 16 19 16 19 19 16 26 29 23 26 26 23 29 32 35 42 48 48 48 52 48 52 55 52 48 48 45 48 45 42 39 42
0 0 0 0 0 6 6 3 6 13 19 23 23 19 23 23 19 23 29 26 23 23 29 26 29 29 32 32 45 48 52 52 52 48 52 45 42 45 45 45 45 39 35 29
3 3 3 3 0 10 6 3 16 16 19 19 19 16 13 16 19 23 26 26 26 32 26 29 32 32 32 32 32 42 48 45 52 48 45 45 39 39 39 42 39 32 26 26
3 3 3 6 13 13 10 13 13 16 19 19 16 13 16 16 19 23 23 23 26 29 32 29 32 35 32 35 35 35 42 45 42 45 42 39 32 32 35 32 42 32 32 23
0 0 0 0 16 16 23 19 6 13 16 19 16 16 13 13 13 19 16 16 23 26 32 32 32 32 35 35 35 35 35 42 42 39 35 39 32 29 32 29 23 6 13 6

GEFSCGP_con_cape1000_306.txt.gz
Probability
0 0 0 0 0 0 0 0 0 0 0 0 0 0 0 0 0 3 13 16 13 16 16 19 19 26 26 52 65 68 68 65 68 77 74 71 71 74 71 71 74 74 61 65
0 0 0 0 0 0 0 0 0 0 0 0 0 0 0 3 3 3 13 16 16 19 19 29 26 32 39 65 68 68 68 68 74 77 77 81 81 74 68 71 68 71 68 61
0 0 0 0 0 0 0 0 0 0 0 0 0 0 3 3 6 10 10 16 19 19 23 32 26 35 32 48 61 58 68 68 71 71 68 68 81 68 65 71 71 74 68 61
0 0 0 0 0 0 0 0 0 0 0 0 0 0 6 3 10 13 16 16 16 16 19 26 29 42 32 52 58 74 71 68 68 68 68 68 65 55 61 68 68 68 61 58
0 0 0 0 0 0 0 0 0 0 0 0 0 0 3 3 10 16 13 13 19 26 26 29 29 39 35 39 48 68 71 68 68 68 68 65 61 65 61 65 68 68 65 61
0 0 0 0 0 0 0 0 0 0 0 0 0 0 3 3 13 16 13 13 26 23 26 29 26 35 45 42 52 61 71 71 68 71 65 71 65 68 71 68 71 68 71 68
0 0 0 0 0 0 0 0 0 0 0 0 0 0 3 6 6 10 10 13 29 23 19 26 29 39 39 52 52 65 68 71 71 68 65 65 68 71 71 71 71 68 58 65
0 0 0 0 0 0 0 0 0 0 0 0 0 3 3 6 10 13 19 16 29 26 23 26 35 45 42 52 55 61 71 71 71 71 77 74 77 74 65 71 65 61 65 52
0 0 0 0 0 0 0 0 0 0 0 0 0 10 6 6 13 16 16 16 23 23 23 16 32 42 42 55 65 58 74 71 74 71 74 74 71 74 74 74 71 61 61 55
0 0 0 0 0 0 0 0 0 0 3 0 0 3 13 13 16 13 16 16 23 26 23 26 32 35 42 55 65 68 71 71 71 71 71 65 71 71 71 74 71 65 68 55
0 0 0 0 0 0 0 0 0 0 0 0 0 6 10 19 19 16 19 16 26 29 23 26 35 29 39 42 58 58 65 71 71 74 71 71 71 71 71 71 68 61 65 55
0 0 0 0 0 0 0 0 0 0 0 3 3 10 16 16 16 19 19 23 26 29 26 23 39 35 35 39 52 52 58 65 68 74 71 71 71 71 71 68 68 65 61 65
0 0 0 0 0 0 0 0 0 0 0 0 3 3 16 13 10 29 26 26 26 39 42 45 39 42 52 52 58 58 58 55 61 68 71 71 71 71 71 68 68 65 65 58
0 0 0 0 0 0 0 0 0 0 3 3 0 10 16 10 13 16 29 29 26 42 52 48 55 58 58 71 71 68 65 58 65 71 68 68 68 68 68 71 68 65 65 58
0 0 0 0 0 0 0 0 0 0 0 0 0 3 19 10 16 23 23 35 35 35 42 48 48 52 55 61 71 71 65 68 65 68 71 71 71 74 68 68 68 68 71 58
0 0 0 0 0 0 0 0 0 0 0 0 3 10 19 19 19 29 29 29 35 32 35 39 48 58 52 61 68 68 68 68 68 68 65 65 65 68 65 65 68 68 71 71
0 6 0 0 0 0 0 0 0 0 0 0 6 16 16 19 16 23 23 35 32 32 35 48 48 52 58 61 65 68 65 68 68 68 68 68 65 61 65 61 68 68 68 68
3 19 10 0 0 0 0 0 0 3 3 3 13 13 16 19 26 23 23 26 29 32 39 45 39 52 58 48 55 61 61 68 68 68 68 65 68 65 61 61 65 65 65 65
0 13 3 0 0 0 0 0 0 3 6 13 16 13 16 19 19 26 29 29 35 39 42 42 39 42 45 48 58 61 61 68 68 68 65 68 71 65 68 68 68 68 68 65
0 6 0 0 0 0 0 0 0 6 10 10 13 13 23 26 26 26 32 32 29 32 42 39 26 29 35 52 61 58 55 65 68 65 65 74 74 71 71 71 68 68 68 68
0 3 3 0 0 0 0 0 0 0 16 16 13 19 16 32 26 29 29 32 32 39 35 39 35 39 42 52 45 52 55 61 58 61 65 68 68 71 71 71 71 71 68 65
0 0 6 3 0 3 6 3 10 32 23 13 19 19 19 16 19 26 32 29 32 32 29 35 39 45 48 45 48 45 58 61 58 61 65 61 61 55 42 65 61 65 65 65
0 0 0 6 6 13 6 16 26 23 19 16 16 16 19 19 23 26 23 23 23 29 32 29 39 42 45 48 52 48 58 65 61 58 55 55 55 55 52 55 55 61 65 52
0 0 6 16 3 16 13 16 16 6 16 13 16 16 23 16 16 19 23 26 26 35 35 35 35 39 45 48 52 52 52 55 61 55 48 45 55 52 55 58 58 52 52 52
3 0 6 13 16 13 16 13 16 13 19 16 13 16 16 19 16 19 32 32 35 39 35 32 32 42 42 45 48 42 48 52 48 45 42 48 48 48 61 52 48 48 45 35
0 0 0 10 16 6 16 16 19 19 16 19 16 16 16 19 16 13 29 35 32 29 39 39 42 39 42 39 39 52 48 52 55 45 45 39 42 42 45 45 29 13 16 6